Location: Dompnac
(44.5644°N, 4.1026°E)
Time: 11:09:19
(UTC+00:00)

Terra - Pass Details

Date: 19 September 2020
Orbit: 701 x 703 km, 98.2° (Epoch: 29 October)

Event Time Altitude Azimuth Distance (km) Brightness Sun altitude
Exits shadow 21:02:18 18° 12° (NNE) 1,712 4.0 -32.9°
Drops below altitude 10° 21:03:38 10° 3° (N) 2,181 4.8 -33.1°
Sets 21:06:02 0° 355° (N) 3,104 5.8 -33.4°
